Avoca, PA

7:13 AM EST on February 21, 2018 (GMT -0500)
Wilkes-Barre-Scranton International

Weather History for KAVP - October, 2013

Change the Weather History Date:

Saturday, October 5, 2013

  Actual Average Record
Temperature  
Mean Temperature 72 °F 55 °F  
Max Temperature 83 °F 65 °F 89 °F (1941)
Min Temperature 60 °F 45 °F 30 °F (1965)
Degree Days  
Heating Degree Days 0 11  
Month to date heating degree days 2 50  
Since 1 July heating degree days 164 212  
Cooling Degree Days 7 0  
Month to date cooling degree days 14 0  
Year to date cooling degree days 785 576  
Growing Degree Days 21 (Base 50)    
Moisture  
Dew Point 62 °F    
Average Humidity 74    
Maximum Humidity 100    
Minimum Humidity 47    
Precipitation  
Precipitation T in 0.11 in 1.53 in (1932)
Month to date precipitation 0.03 0.57  
Year to date precipitation 19.95 29.67  
Sea Level Pressure  
Sea Level Pressure 30.06 in    
Wind  
Wind Speed 2 mph (West)    
Max Wind Speed 10 mph    
Max Gust Speed 15 mph    
Visibility 7 miles    
Events Fog    
T = Trace of Precipitation, MM = Missing Value Source: NWS Daily Summary

Daily Weather History Graph

Daily Weather History Graph

Search for Another Location

Airport or City:

Trip Planner

Search our weather history database for the weather conditions in past years. The results will help you decide how hot, cold, wet, or windy it might be!

Date:

Astronomy

Oct. 05, 2013 Rise Set
Actual Time 7:04 AM EDT 6:37 PM EDT
Civil Twilight 6:36 AM EDT 7:05 PM EDT
Nautical Twilight 6:04 AM EDT 7:37 PM EDT
Astronomical Twilight 5:32 AM EDT 8:09 PM EDT
Moon 7:41 AM EDT (10/5) 6:54 PM EDT (10/5)
Length of Visible Light 12h 28m
Length of Day
11h 33m
New Moon, 0% of the Moon is Illuminated
Oct 5
New Moon
Oct 11
First Quarter
Oct 18
Full
Oct 26
Last Quarter
Nov 3
New

Hourly Weather History & Observations

Time (EDT) Temp. Heat Index Dew Point Humidity Pressure Visibility Wind Dir Wind Speed Gust Speed Precip Events Conditions
12:54 AM 63.0 °F - 61.0 °F 93% 30.04 in 10.0 mi ESE 3.5 mph - N/A   Scattered Clouds
1:54 AM 62.1 °F - 60.1 °F 93% 30.05 in 9.0 mi Calm Calm - N/A   Scattered Clouds
2:30 AM 60.8 °F - 60.8 °F 100% 30.08 in 9.0 mi Calm Calm - N/A   Mostly Cloudy
2:54 AM 62.1 °F - 60.1 °F 93% 30.06 in 9.0 mi Calm Calm - N/A   Overcast
3:54 AM 62.1 °F - 60.1 °F 93% 30.05 in 9.0 mi Calm Calm - N/A   Mostly Cloudy
4:04 AM 60.8 °F - 60.8 °F 100% 30.07 in 9.0 mi Calm Calm - N/A   Mostly Cloudy
4:17 AM 62.6 °F - 60.8 °F 94% 30.07 in 8.0 mi Calm Calm - N/A   Partly Cloudy
4:54 AM 61.0 °F - 60.1 °F 97% 30.06 in 5.0 mi Calm Calm - N/A   Clear
5:54 AM 61.0 °F - 60.1 °F 97% 30.07 in 6.0 mi Calm Calm - N/A   Mostly Cloudy
6:27 AM 60.8 °F - 60.8 °F 100% 30.09 in 6.0 mi Calm Calm - N/A   Overcast
6:54 AM 62.1 °F - 60.1 °F 93% 30.08 in 5.0 mi Calm Calm - N/A   Overcast
7:54 AM 63.0 °F - 62.1 °F 97% 30.09 in 6.0 mi West 3.5 mph - N/A   Overcast
8:14 AM 62.6 °F - 60.8 °F 94% 30.12 in 3.0 mi West 3.5 mph - N/A   Overcast
8:17 AM 62.6 °F - 60.8 °F 94% 30.12 in 1.8 mi West 3.5 mph - N/A   Overcast
8:28 AM 62.6 °F - 62.6 °F 100% 30.12 in 0.5 mi Calm Calm - N/A Fog Fog
8:54 AM 63.0 °F - 62.1 °F 97% 30.11 in 0.5 mi Calm Calm - N/A Fog Fog
9:02 AM 62.6 °F - 62.6 °F 100% 30.12 in 0.2 mi Calm Calm - N/A Fog Fog
9:29 AM 64.4 °F - 62.6 °F 94% 30.12 in 0.5 mi Calm Calm - N/A Fog Fog
9:46 AM 64.4 °F - 62.6 °F 94% 30.12 in 1.8 mi Calm Calm - N/A   Overcast
9:54 AM 64.0 °F - 63.0 °F 96% 30.11 in 3.0 mi Calm Calm - N/A   Overcast
10:31 AM 66.2 °F - 62.6 °F 88% 30.12 in 7.0 mi Calm Calm - N/A   Partly Cloudy
10:54 AM 71.1 °F - 64.0 °F 78% 30.09 in 8.0 mi NNE 3.5 mph - N/A   Clear
11:54 AM 73.0 °F - 63.0 °F 71% 30.08 in 8.0 mi Calm Calm - N/A   Clear
12:54 PM 75.9 °F - 62.1 °F 62% 30.06 in 10.0 mi Variable 3.5 mph - N/A   Clear
1:54 PM 79.0 °F - 61.0 °F 54% 30.03 in 10.0 mi West 4.6 mph - N/A   Clear
2:54 PM 82.0 °F 83.0 °F 62.1 °F 51% 30.01 in 10.0 mi Calm Calm - N/A   Partly Cloudy
3:54 PM 82.9 °F 83.3 °F 61.0 °F 47% 30.00 in 10.0 mi Variable 5.8 mph - N/A   Mostly Cloudy
4:54 PM 81.0 °F 81.7 °F 61.0 °F 50% 30.00 in 10.0 mi WSW 6.9 mph - N/A   Partly Cloudy
5:54 PM 75.9 °F - 64.9 °F 69% 30.00 in 10.0 mi NNE 5.8 mph - N/A   Clear
6:54 PM 73.0 °F - 64.9 °F 76% 30.01 in 10.0 mi Calm Calm - N/A   Clear
7:54 PM 72.0 °F - 63.0 °F 73% 30.01 in 10.0 mi Calm Calm - N/A   Mostly Cloudy
8:54 PM 70.0 °F - 63.0 °F 78% 30.02 in 10.0 mi Calm Calm - N/A   Clear
9:54 PM 69.1 °F - 64.0 °F 84% 30.03 in 10.0 mi Calm Calm - N/A   Mostly Cloudy
10:54 PM 72.0 °F - 63.0 °F 73% 30.03 in 10.0 mi Calm Calm - N/A   Overcast
11:54 PM 72.0 °F - 62.1 °F 71% 30.03 in 10.0 mi SW 3.5 mph - N/A   Overcast